Location: Bluff Heights
(33.7692°N, 118.1592°W)
Time: 14:43:52
(UTC+00:00)

Vanguard 1 Rocket - Visible Passes

Search period start: 25 September 2021 00:00
Search period end: 05 October 2021 00:00
Orbit: 650 x 4226 km, 34.3° (Epoch: 24 September)

Date Brightness Start Highest point End Pass type
(mag) Time Alt. Az. Time Alt. Az. Time Alt. Az.
25 Sep 7.7 03:41:12 10° SW 03:44:13 36° SSW 03:44:13 36° SSW visible
25 Sep 10.8 08:47:55 20° ESE 08:47:55 20° ESE 08:52:25 10° ESE visible
25 Sep 9.9 11:05:15 39° SSW 11:05:15 39° SSW 11:23:21 10° SSE visible
26 Sep 8.1 02:31:20 10° SSW 02:34:48 22° SSE 02:37:07 16° ESE visible
26 Sep 10.3 09:58:36 34° SSE 09:58:36 34° SSE 10:09:13 10° SE visible
26 Sep 10.5 12:15:56 19° SW 12:21:09 22° SSW 12:35:51 10° S visible
27 Sep 7.3 03:43:57 10° WSW 03:47:17 47° SSW 03:47:17 47° SSW visible
27 Sep 11.0 08:51:56 16° SE 08:51:56 16° SE 08:54:32 10° ESE visible
27 Sep 10.3 11:09:16 30° SSW 11:09:16 30° SSW 11:23:51 10° SSE visible
28 Sep 7.6 02:33:35 10° SW 02:37:35 32° SSE 02:40:09 19° ESE visible
28 Sep 10.6 10:02:33 26° SSE 10:02:33 26° SSE 10:10:28 10° SE visible
28 Sep 10.7 12:19:53 14° SW 12:24:05 15° SSW 12:34:02 10° S visible
29 Sep 7.2 03:46:51 10° WSW 03:50:14 54° SW 03:50:14 54° SW visible
29 Sep 11.2 08:55:48 11° SE 08:55:48 11° SE 08:56:25 10° SE visible
29 Sep 10.6 11:13:08 22° SSW 11:13:08 22° SSW 11:23:44 10° SSE visible
30 Sep 7.1 02:36:08 10° SW 02:40:29 46° SSE 02:43:03 22° E visible
30 Sep 10.9 10:06:19 19° SSE 10:06:19 19° SSE 10:11:20 10° SSE visible
01 Oct 7.4 03:49:51 10° W 03:53:07 52° WSW 03:53:07 52° WSW visible
01 Oct 10.9 11:16:46 15° SSW 11:16:46 15° SSW 11:22:32 10° S visible
02 Oct 6.7 02:38:52 10° WSW 02:43:26 62° SSE 02:45:53 25° E visible
02 Oct 11.1 10:09:51 13° SSE 10:09:51 13° SSE 10:11:38 10° SSE visible
03 Oct 7.6 03:52:52 10° W 03:55:54 45° W 03:55:54 45° W visible
04 Oct 6.6 02:41:44 10° WSW 02:46:25 78° SSE 02:48:38 29° E visible
